Location: Unspecified
(0.0000°N, 0.0000°E)
Time: 18:54:09
(UTC+00:00)

PANSAT - Visible Passes

Search period start: 23 July 2021 00:00
Search period end: 02 August 2021 00:00
Orbit: 472 x 479 km, 28.4° (Epoch: 23 July)

Date Brightness Start Highest point End Pass type
(mag) Time Alt. Az. Time Alt. Az. Time Alt. Az.
23 Jul 10.2 04:50:54 10° NNW 04:53:28 17° NNE 04:56:02 10° ENE visible
24 Jul 10.2 04:20:21 12° N 04:22:24 17° NNE 04:24:57 10° ENE visible
25 Jul 10.4 03:52:15 16° NE 03:52:15 16° NE 03:53:52 10° ENE visible
25 Jul 7.5 05:27:21 10° WNW 05:31:03 64° SSW 05:34:47 10° SE visible
26 Jul 7.4 04:58:16 29° WNW 04:59:59 65° SSW 05:03:43 10° SE visible
27 Jul 8.4 04:30:04 40° SE 04:30:04 40° SE 04:32:39 10° SE visible
28 Jul 9.7 05:37:04 10° SW 05:37:40 10° SSW 05:38:16 10° SSW visible
